Weather History for KXNA - August, 2013

Change the Weather History Date:

Thursday, August 29, 2013

  Actual Average Record
Temperature  
Mean Temperature 81 °F -  
Max Temperature 93 °F - - ()
Min Temperature 69 °F - - ()
Cooling Degree Days 16    
Growing Degree Days 31 (Base 50)    
Moisture  
Dew Point 68 °F    
Average Humidity 69    
Maximum Humidity 96    
Minimum Humidity 41    
Precipitation  
Precipitation 0.00 in - - ()
Sea Level Pressure  
Sea Level Pressure 30.03 in    
Wind  
Wind Speed 2 mph (WSW)    
Max Wind Speed 10 mph    
Max Gust Speed -    
Visibility 10 miles    
Events      
T = Trace of Precipitation, MM = Missing Value Source: NWS Daily Summary

Daily Weather History Graph

Daily Weather History Graph

Search for Another Location

Airport or City:

Trip Planner

Search our weather history database for the weather conditions in past years. The results will help you decide how hot, cold, wet, or windy it might be!

Date:

Astronomy

Aug. 29, 2013 Rise Set
Actual Time 6:46 AM CDT 7:48 PM CDT
Civil Twilight 6:20 AM CDT 8:15 PM CDT
Nautical Twilight 5:48 AM CDT 8:46 PM CDT
Astronomical Twilight 5:16 AM CDT 9:19 PM CDT
Moon 12:43 AM CDT 3:13 PM CDT
Length of Visible Light 13h 55m
Length of Day
13h 02m
Last Quarter, 38% of the Moon is Illuminated
Aug 29
Last Quarter
Sep 5
New
Sep 12
First Quarter
Sep 19
Full
Sep 26
Last Quarter

Hourly Weather History & Observations

Time (CDT) Temp. Heat Index Dew Point Humidity Pressure Visibility Wind Dir Wind Speed Gust Speed Precip Events Conditions
12:53 AM 72.0 °F - 68.0 °F 87% 30.04 in 10.0 mi Calm Calm - N/A   Clear
1:53 AM 72.0 °F - 68.0 °F 87% 30.03 in 10.0 mi Calm Calm - N/A   Clear
2:53 AM 69.1 °F - 66.9 °F 93% 30.04 in 10.0 mi Calm Calm - N/A   Clear
3:53 AM 70.0 °F - 68.0 °F 93% 30.04 in 10.0 mi Calm Calm - N/A   Clear
4:53 AM 69.1 °F - 68.0 °F 96% 30.04 in 10.0 mi Calm Calm - N/A   Clear
5:53 AM 69.1 °F - 68.0 °F 96% 30.04 in 10.0 mi Calm Calm - N/A   Clear
6:53 AM 69.1 °F - 66.9 °F 93% 30.06 in 3.0 mi Calm Calm - N/A   Partly Cloudy
7:53 AM 73.9 °F - 69.1 °F 85% 30.07 in 10.0 mi Calm Calm - N/A   Overcast
8:53 AM 80.1 °F 83.2 °F 70.0 °F 71% 30.07 in 10.0 mi SSW 5.8 mph - N/A   Clear
9:53 AM 84.0 °F 88.4 °F 70.0 °F 63% 30.07 in 10.0 mi Variable 4.6 mph - N/A   Scattered Clouds
10:53 AM 86.0 °F 89.4 °F 68.0 °F 55% 30.07 in 10.0 mi SW 6.9 mph - N/A   Mostly Cloudy
11:53 AM 90.0 °F 94.5 °F 69.1 °F 50% 30.06 in 10.0 mi SW 9.2 mph - N/A   Clear
12:53 PM 91.0 °F 95.2 °F 68.0 °F 47% 30.05 in 10.0 mi WSW 10.4 mph - N/A   Clear
1:53 PM 93.0 °F 95.9 °F 66.0 °F 41% 30.03 in 10.0 mi NW 5.8 mph - N/A   Clear
2:53 PM 93.0 °F 95.9 °F 66.0 °F 41% 30.01 in 10.0 mi Variable 5.8 mph - N/A   Clear
3:53 PM 91.9 °F 94.5 °F 66.0 °F 42% 30.00 in 10.0 mi Calm Calm - N/A   Clear
4:53 PM 91.9 °F 94.5 °F 66.0 °F 42% 29.99 in 10.0 mi Variable 3.5 mph - N/A   Clear
5:53 PM 91.0 °F 95.2 °F 68.0 °F 47% 29.99 in 10.0 mi WNW 3.5 mph - N/A   Clear
6:53 PM 88.0 °F 92.1 °F 69.1 °F 53% 29.99 in 10.0 mi Calm Calm - N/A   Clear
7:53 PM 84.0 °F 88.4 °F 70.0 °F 63% 29.99 in 10.0 mi Calm Calm - N/A   Clear
8:53 PM 81.0 °F 84.9 °F 71.1 °F 72% 29.99 in 10.0 mi Calm Calm - N/A   Clear
9:53 PM 79.0 °F - 71.1 °F 77% 30.00 in 10.0 mi Calm Calm - N/A   Clear
10:53 PM 77.0 °F - 70.0 °F 79% 29.99 in 10.0 mi Calm Calm - N/A   Clear
11:53 PM 75.9 °F - 70.0 °F 82% 29.99 in 10.0 mi Calm Calm - N/A   Clear